Breckenridge, TX

5:05 AM CDT on May 27, 2017 (GMT -0500)
Stephens County

Weather History for KBKD - December, 2013

Change the Weather History Date:

Thursday, December 5, 2013

  Actual Average (KMWL) Record (KMWL)
Temperature  
Mean Temperature 32 °F -  
Max Temperature 41 °F 58 °F 79 °F (2014)
Min Temperature 23 °F 37 °F 23 °F (2013)
Degree Days  
Heating Degree Days 33    
Moisture  
Dew Point 18 °F    
Average Humidity 63    
Maximum Humidity 95    
Minimum Humidity 38    
Precipitation  
Precipitation 0.00 in - - ()
Sea Level Pressure  
Sea Level Pressure 30.14 in    
Wind  
Wind Speed 15 mph (North)    
Max Wind Speed 20 mph    
Max Gust Speed 29 mph    
Visibility 9 miles    
Events Snow    
Averages and records for this station are not official NWS values.
T = Trace of Precipitation, MM = Missing Value Source: NWS Daily Summary

Daily Weather History Graph

Daily Weather History Graph

Search for Another Location

Airport or City:

Trip Planner

Search our weather history database for the weather conditions in past years. The results will help you decide how hot, cold, wet, or windy it might be!

Date:

Astronomy

Dec. 05, 2013 Rise Set
Actual Time 7:23 AM CST 5:29 PM CST
Civil Twilight 6:56 AM CST 5:56 PM CST
Nautical Twilight 6:25 AM CST 6:26 PM CST
Astronomical Twilight 5:55 AM CST 6:56 PM CST
Moon 9:49 AM CST (12/5) 8:46 PM CST (12/5)
Length of Visible Light 10h 59m
Length of Day
10h 05m
Waxing Crescent, 11% of the Moon is Illuminated
Dec 5
Waxing Crescent
Dec 9
First Quarter
Dec 17
Full
Dec 25
Last Quarter
Jan 1
New

Hourly Weather History & Observations

Time (CST) Temp. Windchill Dew Point Humidity Pressure Visibility Wind Dir Wind Speed Gust Speed Precip Events Conditions
12:15 AM 41.4 °F 32.7 °F 26.4 °F 55% 29.97 in 10.0 mi NNE 18.4 mph 27.6 mph N/A   Overcast
12:35 AM 40.5 °F 32.5 °F 25.7 °F 56% 29.98 in 10.0 mi North 15.0 mph 27.6 mph N/A   Overcast
12:55 AM 40.1 °F 32.7 °F 25.7 °F 56% 29.99 in 10.0 mi North 12.7 mph 24.2 mph N/A   Overcast
1:15 AM 39.2 °F 30.2 °F 23.9 °F 54% 30.00 in 10.0 mi North 17.3 mph 28.8 mph N/A   Overcast
1:35 AM 38.3 °F 28.7 °F 23.0 °F 54% 30.01 in 10.0 mi North 18.4 mph 26.5 mph N/A   Overcast
1:55 AM 37.6 °F 28.8 °F 23.0 °F 56% 30.01 in 10.0 mi North 15.0 mph 23.0 mph N/A   Overcast
2:15 AM 37.4 °F 27.2 °F 22.5 °F 55% 30.02 in 10.0 mi North 19.6 mph 25.3 mph N/A   Overcast
2:35 AM 37.0 °F 27.0 °F 22.1 °F 55% 30.04 in 10.0 mi North 18.4 mph 27.6 mph N/A   Overcast
2:55 AM 36.5 °F 27.0 °F 21.2 °F 54% 30.05 in 10.0 mi NNE 16.1 mph 25.3 mph N/A   Overcast
3:15 AM 35.8 °F 26.1 °F 19.6 °F 52% 30.05 in 10.0 mi NNE 16.1 mph 25.3 mph N/A   Overcast
3:35 AM 35.6 °F 28.6 °F 19.6 °F 52% 30.09 in 10.0 mi NNE 9.2 mph 21.9 mph N/A   Overcast
3:55 AM 35.2 °F 25.0 °F 19.0 °F 52% 30.07 in 10.0 mi North 17.3 mph 23.0 mph N/A   Overcast
4:15 AM 35.1 °F 25.9 °F 18.5 °F 51% 30.08 in 10.0 mi North 13.8 mph 24.2 mph N/A   Overcast
4:35 AM 34.9 °F 23.9 °F 17.4 °F 49% 30.08 in 10.0 mi North 19.6 mph 26.5 mph N/A   Overcast
4:55 AM 34.5 °F 24.1 °F 16.7 °F 48% 30.08 in 10.0 mi North 17.3 mph 23.0 mph N/A   Overcast
5:15 AM 34.0 °F 23.8 °F 15.8 °F 47% 30.09 in 10.0 mi NNE 16.1 mph 19.6 mph N/A   Overcast
5:35 AM 33.8 °F 23.2 °F 15.4 °F 47% 30.11 in 10.0 mi North 17.3 mph 24.2 mph N/A   Overcast
5:55 AM 33.8 °F 23.5 °F 14.7 °F 46% 30.10 in 10.0 mi North 16.1 mph 26.5 mph N/A   Overcast
6:15 AM 33.6 °F 23.3 °F 13.8 °F 44% 30.11 in 10.0 mi North 16.1 mph 23.0 mph N/A   Overcast
6:35 AM 33.1 °F 22.2 °F 12.2 °F 42% 30.13 in 10.0 mi North 17.3 mph 25.3 mph N/A   Scattered Clouds
6:55 AM 32.9 °F 23.2 °F 10.9 °F 40% 30.12 in 10.0 mi NNE 13.8 mph 24.2 mph N/A   Clear
7:15 AM 32.4 °F 24.0 °F 9.7 °F 39% 30.15 in 10.0 mi NNE 10.4 mph - N/A   Clear
7:35 AM 32.0 °F 21.2 °F 9.1 °F 38% 30.14 in 10.0 mi North 16.1 mph 25.3 mph N/A   Clear
7:55 AM 32.0 °F 23.6 °F 9.0 °F 38% 30.15 in 10.0 mi NNE 10.4 mph 20.7 mph N/A   Clear
8:15 AM 32.0 °F 22.1 °F 8.8 °F 38% 30.16 in 10.0 mi North 13.8 mph 19.6 mph N/A   Scattered Clouds
8:35 AM 32.0 °F 20.8 °F 8.8 °F 38% 30.14 in 10.0 mi North 17.3 mph 20.7 mph N/A   Mostly Cloudy
8:55 AM 32.0 °F 21.2 °F 8.6 °F 38% 30.15 in 10.0 mi North 16.1 mph 21.9 mph N/A   Overcast
9:15 AM 32.0 °F 20.8 °F 8.6 °F 38% 30.16 in 10.0 mi North 17.3 mph 23.0 mph N/A   Overcast
9:35 AM 32.0 °F 20.8 °F 8.6 °F 38% 30.17 in 10.0 mi North 17.3 mph 25.3 mph N/A   Overcast
9:55 AM 32.0 °F 20.8 °F 8.6 °F 38% 30.20 in 10.0 mi North 17.3 mph 23.0 mph N/A   Overcast
10:15 AM 32.0 °F 22.1 °F 9.0 °F 38% 30.22 in 10.0 mi North 13.8 mph 19.6 mph N/A   Overcast
10:35 AM 32.0 °F 21.2 °F 9.1 °F 38% 30.22 in 10.0 mi North 16.1 mph 19.6 mph N/A   Overcast
10:55 AM 31.5 °F 21.4 °F 11.7 °F 44% 30.19 in 10.0 mi North 13.8 mph 23.0 mph N/A   Overcast
11:15 AM 31.6 °F 20.7 °F 9.5 °F 40% 30.18 in 10.0 mi North 16.1 mph 24.2 mph N/A   Overcast
11:35 AM 31.8 °F 21.4 °F 9.1 °F 39% 30.18 in 10.0 mi North 15.0 mph 25.3 mph N/A   Overcast
11:55 AM 32.0 °F 21.6 °F 9.1 °F 38% 30.18 in 10.0 mi North 15.0 mph 25.3 mph N/A   Overcast
12:15 PM 31.6 °F 20.4 °F 9.1 °F 39% 30.17 in 10.0 mi North 17.3 mph 25.3 mph N/A   Overcast
12:35 PM 31.6 °F 22.1 °F 9.5 °F 40% 30.17 in 10.0 mi North 12.7 mph 21.9 mph N/A   Overcast
12:55 PM 31.1 °F 19.3 °F 12.2 °F 46% 30.18 in 10.0 mi NNW 18.4 mph 23.0 mph N/A   Overcast
1:15 PM 30.2 °F 20.2 °F 16.5 °F 57% 30.18 in 10.0 mi North 12.7 mph 18.4 mph N/A   Overcast
1:35 PM 29.3 °F 17.7 °F 20.8 °F 71% 30.18 in 3.0 mi North 16.1 mph 20.7 mph N/A   Overcast
1:55 PM 28.4 °F 18.5 °F 22.3 °F 78% 30.15 in 5.0 mi NNE 11.5 mph 17.3 mph N/A Snow Light Snow
2:15 PM 27.7 °F 17.1 °F 21.7 °F 78% 30.13 in 10.0 mi NNE 12.7 mph 20.7 mph N/A   Overcast
2:35 PM 27.5 °F 18.6 °F 21.2 °F 77% 30.13 in 10.0 mi NNE 9.2 mph - N/A   Overcast
2:55 PM 27.9 °F 19.8 °F 21.0 °F 75% 30.13 in 10.0 mi North 8.1 mph 19.6 mph N/A   Overcast
3:15 PM 27.7 °F 18.2 °F 20.7 °F 75% 30.12 in 10.0 mi NNE 10.4 mph - N/A   Overcast
3:35 PM 28.0 °F 19.3 °F 20.7 °F 74% 30.13 in 10.0 mi NNE 9.2 mph 18.4 mph N/A   Overcast
3:55 PM 27.5 °F 18.0 °F 20.7 °F 75% 30.13 in 10.0 mi North 10.4 mph - N/A   Mostly Cloudy
4:15 PM 27.1 °F 15.4 °F 21.6 °F 80% 30.14 in 10.0 mi North 15.0 mph - N/A   Overcast
4:35 PM 26.6 °F 15.7 °F 21.7 °F 82% 30.15 in 10.0 mi North 12.7 mph 16.1 mph N/A   Overcast
4:55 PM 26.8 °F 17.7 °F 21.9 °F 82% 30.16 in 10.0 mi North 9.2 mph - N/A   Overcast
5:15 PM 27.0 °F 16.1 °F 22.5 °F 83% 30.16 in 10.0 mi North 12.7 mph 19.6 mph N/A   Overcast
5:35 PM 27.0 °F 16.7 °F 23.2 °F 86% 30.17 in 10.0 mi North 11.5 mph - N/A   Overcast
5:55 PM 26.6 °F 16.2 °F 23.0 °F 86% 30.17 in 10.0 mi North 11.5 mph 16.1 mph N/A Snow Light Snow
6:15 PM 26.6 °F 16.2 °F 23.0 °F 86% 30.16 in 10.0 mi North 11.5 mph 19.6 mph N/A Snow Light Snow
6:35 PM 26.6 °F 17.5 °F 23.7 °F 89% 30.17 in 4.0 mi North 9.2 mph 16.1 mph N/A   Overcast
6:55 PM 26.1 °F 16.2 °F 22.6 °F 87% 30.17 in 10.0 mi North 10.4 mph 19.6 mph N/A   Overcast
7:15 PM 26.1 °F 16.2 °F 22.6 °F 87% 30.17 in 7.0 mi North 10.4 mph - N/A Snow Light Snow
7:35 PM 25.7 °F 15.7 °F 22.5 °F 88% 30.18 in 3.0 mi North 10.4 mph 18.4 mph N/A Snow Light Snow
7:55 PM 25.2 °F 15.1 °F 23.9 °F 95% 30.18 in 1.5 mi North 10.4 mph - N/A Snow Light Snow
8:15 PM 25.2 °F 15.7 °F 23.7 °F 94% 30.17 in 2.5 mi North 9.2 mph 16.1 mph N/A Snow Light Snow
8:35 PM 25.3 °F 16.0 °F 23.7 °F 94% 30.17 in 4.0 mi North 9.2 mph - N/A Snow Light Snow
8:55 PM 25.0 °F 14.2 °F 23.5 °F 94% 30.20 in 4.0 mi NNW 11.5 mph 16.1 mph N/A Snow Light Snow
9:15 PM 25.2 °F 13.9 °F 22.8 °F 91% 30.17 in 4.0 mi North 12.7 mph 19.6 mph N/A Snow Light Snow
9:35 PM 24.8 °F 14.6 °F 22.8 °F 92% 30.18 in 3.0 mi North 10.4 mph 17.3 mph N/A Snow Light Snow
9:55 PM 24.4 °F 11.0 °F 22.5 °F 92% 30.17 in 2.5 mi NNE 17.3 mph 21.9 mph N/A Snow Light Snow
10:15 PM 23.9 °F 12.3 °F 19.9 °F 85% 30.18 in 10.0 mi North 12.7 mph 19.6 mph N/A   Overcast
10:35 PM 23.9 °F 10.3 °F 20.7 °F 87% 30.18 in 7.0 mi North 17.3 mph 23.0 mph N/A   Overcast
10:55 PM 24.3 °F 14.6 °F 21.0 °F 87% 30.20 in 4.0 mi NNW 9.2 mph 17.3 mph N/A Snow Light Snow
11:15 PM 23.9 °F 11.2 °F 19.9 °F 85% 30.21 in 5.0 mi North 15.0 mph 20.7 mph N/A Snow Light Snow
11:35 PM 23.7 °F 14.0 °F 20.8 °F 89% 30.20 in 2.5 mi North 9.2 mph - N/A Snow Light Snow
11:55 PM 23.7 °F 12.6 °F 19.6 °F 84% 30.21 in 7.0 mi North 11.5 mph 19.6 mph N/A Snow Light Snow